Home   Weather   Taichung   Past weeks

Flag for Taiwan Past Weather in Taichung, Taiwan — Yesterday and Last 2 Weeks

77 °F

Passing clouds.

Feels Like: 79 °F
Forecast: 80 / 92 °F
Wind: 12 mph from Northeast

Location: Chiang Kai Shek

Current Time: Oct 24, 2016 at 6:13:03 AM

Latest Report: Oct 24, 2016 at 5:30 AM

Visibility: N/A

Pressure: 29.89 "Hg

Humidity: 79%

Dew Point: 70 °F

Location of TaichungLocation

Past Weather in Taichung — Graph


Taichung Temperature Yesterday

Maximum temperature yesterday: 88 °F (at 11:00 AM)
Minimum temperature yesterday: 77 °F (at 6:30 PM)
Average temperature yesterday: 81 °F

High & Low Weather Summary for the Past Weeks

High93 °F (Oct 20, 12:30 PM)100% (Oct 10, 10:30 PM)30.01 "Hg (Oct 10, 10:30 PM)
Low72 °F (Oct 9, 7:00 AM)53% (Oct 20, 12:30 PM)29.53 "Hg (Oct 20, 2:30 PM)
Average80 °F82%29.84 "Hg
* Reported Oct 9 5:00 AM — Oct 24 5:00 AM, Taichung, Weather by CustomWeather, © 2016

Note: Actual official high and low records may vary slightly from our data, if they occured in-between our weather recording intervals... More about our weather records


Taichung Weather History for the Previous 24 Hours

Scroll right to see more
Time TempWeatherWind HumidityBarometerVisibility
5:00 AM
Mon, Oct 24
77 °FPassing clouds.10 mph79%29.89 "HgN/A
4:30 AM77 °FPassing clouds.12 mph79%29.89 "HgN/A
4:00 AM77 °FPassing clouds.8 mph79%29.86 "HgN/A
3:30 AM77 °FPassing clouds.9 mph79%29.86 "HgN/A
3:00 AM77 °FPassing clouds.12 mph79%29.86 "HgN/A
2:30 AM77 °FPassing clouds.10 mph79%29.86 "HgN/A
2:00 AM77 °FPassing clouds.8 mph79%29.86 "HgN/A
1:30 AM75 °FPassing clouds.7 mph83%29.89 "HgN/A
1:00 AM75 °FPassing clouds.8 mph83%29.86 "HgN/A
12:30 AM77 °FPassing clouds.8 mph83%29.86 "HgN/A
12:00 AM77 °FPassing clouds.13 mph83%29.89 "HgN/A
11:30 PM
Sun, Oct 23
79 °FPassing clouds.10 mph79%29.89 "HgN/A
11:00 PM79 °FPassing clouds.10 mph79%29.89 "HgN/A
10:30 PM77 °FPassing clouds.15 mph89%29.89 "HgN/A
10:00 PM79 °FPassing clouds.14 mph84%29.89 "HgN/A
9:30 PM79 °FPassing clouds.17 mph79%29.89 "HgN/A
9:00 PM77 °FPassing clouds.17 mph89%29.89 "HgN/A
8:30 PM79 °FPassing clouds.20 mph84%29.89 "HgN/A
8:00 PM77 °FPassing clouds.18 mph83%29.89 "HgN/A
7:30 PM77 °FPassing clouds.20 mph89%29.86 "HgN/A
7:00 PM77 °FPassing clouds.20 mph89%29.86 "HgN/A
6:30 PM77 °FPassing clouds.20 mph89%29.86 "HgN/A
6:00 PM79 °FPartly cloudy.17 mph84%29.83 "HgN/A
5:30 PM79 °FPartly cloudy.18 mph84%29.83 "HgN/A
5:00 PM79 °FBroken clouds.16 mph84%29.83 "HgN/A
4:30 PM79 °FBroken clouds.15 mph89%29.83 "HgN/A
4:00 PM82 °FBroken clouds.12 mph79%29.83 "HgN/A
3:30 PM82 °FPartly sunny.13 mph84%29.80 "HgN/A
3:00 PM82 °FPartly sunny.12 mph84%29.80 "HgN/A
2:52 PM82 °FPartly sunny.10 mph84%29.80 "HgN/A
2:30 PM84 °FScattered clouds.12 mph79%29.80 "HgN/A
2:00 PM84 °FScattered clouds.12 mph79%29.80 "HgN/A
1:30 PM84 °FPassing clouds.15 mph79%29.80 "HgN/A
1:00 PM84 °FPassing clouds.16 mph79%29.80 "HgN/A
12:30 PM86 °FScattered clouds.17 mph79%29.83 "HgN/A
12:00 PM86 °FScattered clouds.17 mph79%29.83 "HgN/A
11:30 AM84 °FScattered clouds.20 mph84%29.83 "HgN/A
11:00 AM88 °FScattered clouds.20 mph70%29.83 "HgN/A
10:30 AM86 °FScattered clouds.21 mph75%29.83 "HgN/A
10:00 AM86 °FScattered clouds.15 mph75%29.86 "HgN/A
9:30 AM86 °FScattered clouds.17 mph79%29.86 "HgN/A
9:00 AM86 °FPassing clouds.18 mph75%29.86 "HgN/A
8:30 AM86 °FPassing clouds.16 mph75%29.86 "HgN/A
8:00 AM84 °FScattered clouds.14 mph79%29.83 "HgN/A
7:30 AM82 °FPassing clouds.12 mph84%29.83 "HgN/A
7:00 AM81 °FScattered clouds.12 mph89%29.83 "HgN/A
6:30 AM81 °FScattered clouds.10 mph89%29.80 "HgN/A
6:00 AM81 °FPassing clouds.12 mph89%29.80 "HgN/A
Weather by CustomWeather, © 2016

See weather overviewHow to use our weather pages